Location: East Rochester
(43.1122°N, 77.4867°W)
Time: 14:05:12
(UTC+00:00)

ACS3 Solar Sail - Visible Passes

Search period start: 23 July 2024 00:00
Search period end: 02 August 2024 00:00
Orbit: 993 x 1022 km, 97.4° (Epoch: 23 July)

Date Brightness Start Highest point End Pass type
(mag) Time Alt. Az. Time Alt. Az. Time Alt. Az.
23 Jul 5.0 02:22:36 14° S 02:27:57 75° WSW 02:34:15 10° NNW visible
23 Jul 7.3 04:11:46 10° W 04:13:07 11° W 04:14:27 10° WNW visible
24 Jul 5.7 01:13:01 10° SE 01:18:31 35° ENE 01:24:05 10° N visible
24 Jul 5.9 02:57:26 13° SSW 03:02:31 40° W 03:08:23 10° NNW visible
25 Jul 5.0 01:46:54 12° SSE 01:52:42 63° ENE 01:58:53 10° N visible
25 Jul 6.7 03:32:41 10° SW 03:37:17 21° W 03:41:56 10° NW visible
26 Jul 5.0 02:21:45 15° S 02:27:05 73° W 02:33:22 10° NNW visible
26 Jul 7.3 04:11:28 10° W 04:12:16 10° W 04:13:04 10° WNW visible
27 Jul 5.6 01:12:04 10° SE 01:17:38 36° ENE 01:23:15 10° N visible
27 Jul 5.9 02:56:35 13° SSW 03:01:39 39° W 03:07:30 10° NNW visible
28 Jul 4.9 01:46:04 12° SSE 01:51:49 65° ENE 01:58:02 10° N visible
28 Jul 6.8 03:31:54 10° SW 03:36:26 21° W 03:41:01 10° NW visible
29 Jul 5.0 02:20:54 15° S 02:26:12 71° W 02:32:30 10° NNW visible
30 Jul 5.6 01:11:09 10° SE 01:16:45 37° ENE 01:22:24 10° N visible
30 Jul 6.0 02:55:45 13° SSW 03:00:48 38° W 03:06:37 10° NNW visible
31 Jul 4.9 01:45:14 12° SSE 01:50:57 67° ENE 01:57:11 10° N visible
31 Jul 6.8 03:31:09 10° SW 03:35:35 20° W 03:40:05 10° NW visible
01 Aug 5.1 02:20:04 15° S 02:25:21 69° W 02:31:38 10° NNW visible
